Weather Roundup
Issued by NWS Chicago, IL

Home | Current Version | Previous Version | Text Only | Print | Product List | Glossary Off
Versions: 1 2 3 4 5 6 7 8 9 10 11 12 13 14 15 16 17 18 19 20 21 22 23 24 25 26 27 28 29 30 31 32 33 34 35 36 37 38 39 40 41 42 43 44 45 46 47 48 49 50

000
NZUS59 KLOT 030125
HRRLOT

CHICAGO AREA WEATHER ROUNDUP
NATIONAL WEATHER SERVICE CHICAGO/ROMEOVILLE IL
800 PM CDT SUN AUG 02 2015

NOTE: "FAIR" INDICATES FEW OR NO CLOUDS BELOW 12,000 FEET WITH NO
SIGNIFICANT WEATHER AND/OR OBSTRUCTIONS TO VISIBILITY.

* THESE STATIONS ARE NOT UNDER NWS QUALITY CONTROL. THEY ALSO MAY NOT
  REPORT WEATHER SUCH AS PRECIPITATION OR FOG.

ILZ005-006-012>014-019>023-030200-
NORTHEAST ILLINOIS

CITY           SKY/WX    TMP DP  RH WIND       PRES   REMARKS
OHARE          MOCLDY    86  71  60 SW18G31   29.66S HX  91
MIDWAY         MOCLDY    88  68  51 SW20G31   29.67S HX  91
AURORA         MOCLDY    85  70  60 SW15G22   29.69S HX  89
LANSING*       CLEAR     84  70  61 SW18G25   29.71R HX  88
JOLIET*        MOCLDY    86  70  59 SW7       29.71R HX  91
WAUKEGAN       MOCLDY    85  70  60 SW17G30   29.62S HX  89
DUPAGE AIRPORT MOCLDY    84  71  65 SW16G26   29.68S HX  89
WHEELING       PTCLDY    87  70  56 SW18G33   29.66S HX  92
KANKAKEE*      CLEAR     82  73  72 SW10      29.74R HX  88
MORRIS*        CLEAR     84  69  61 SW12G21   29.70S HX  88
LEWIS AIRPORT* MOCLDY    84  67  56 SW15G22   29.70F HX  86
NORTHERLY IS     N/A     87  66  49 SW16        N/A  HX  89
$$

WIZ051-052-058>065-066-070>072-030200-
SOUTHEAST WISCONSIN

CITY           SKY/WX    TMP DP  RH WIND       PRES   REMARKS
MILWAUKEE      HAIL      68  63  84 SE10      29.66R VSB 1
KENOSHA*       MOCLDY    85  71  63 SW18G24   29.59F HX  90
RACINE*        CLOUDY    86  70  58 SW13G26   29.60F THUNDER HX  90
BURLINGTON     MOCLDY    83  70  64 SW14G24   29.59F HX  87
WAUKESHA       LGT RAIN  82  70  65 NW18G33   29.60R HX  86
WEST BEND      RAIN      68  63  83 NW3       29.65R
$$

INZ001>003-010>013-019-020-030200-
NORTHWEST INDIANA

CITY           SKY/WX    TMP DP  RH WIND       PRES   REMARKS
GARY*          PTCLDY    86  70  58 SW16G39   29.70R HX  90
MICHIGAN CITY* NOT AVBL
RENSSELAER*    NOT AVBL
VALPARAISO     CLEAR     83  68  60 SW14      29.72S HX  86
$$

LMZ740>746-030200-
SOUTHERN LAKE MICHIGAN

STATION/POSITION TIME  SKY/WX   TEMP WIND        PRES    VSBY
                                AIR  DIR/SP/G
                 (UTC)          (F)  (DEG/KT/KT) (MB)    (MI)
HARRISON CRIB    0100            86  220/ 28/ 40   N/A
BURNHAM HARBOR   0100            87  230/ 17/ 22   N/A
CALUMET HARBOR   0100            86  220/ 10/ 19   N/A
BURNS HARBOR     0025            86  220/ 26/ 27 1005.4F
MICHIGAN CITY    0100            84  190/ 23/ 26   N/A
$$

ABBREVIATIONS USED IN REMARKS
   TC - TEMPERATURE IN CELSIUS
  WCI - WIND CHILL INDEX
   HX - HEAT INDEX
  VSB - VISIBILITY
$$


USA.gov is the U.S. government's official web portal to all federal, state and local government web resources and services.